FW3279 Weather Reports


time (UTC)temp
F
wind
direction
speed
knots
gust
knots
rain 1hr
in
rain 24hr
in
rain mn
in
humidity
%
barometer
mb
20260506044551 56 285 0.0 1.7 0.00 0.02 0.02 48 1015.6
20260506043045 57 274 0.0 5.2 0.00 0.02 0.02 47 1015.4
20260506041545 57 298 0.0 2.6 0.00 0.02 0.02 44 1015.0
20260506040046 58 278 0.0 4.3 0.00 0.02 0.02 42 1014.7
20260506034549 59 293 1.7 5.2 0.00 0.02 0.02 40 1014.5
20260506033047 59 284 0.9 6.1 0.00 0.02 0.02 39 1014.2
20260506031548 61 306 2.6 6.1 0.00 0.02 0.02 37 1014.0
20260506030045 62 240 0.0 5.2 0.00 0.02 0.02 35 1013.6
20260506024552 62 266 0.9 8.7 0.00 0.02 0.02 34 1013.4
20260506023041 63 255 2.6 10.4 0.00 0.02 0.02 32 1013.1
20260506021556 64 255 2.6 7.8 0.00 0.02 0.02 32 1012.8
20260506020039 65 215 4.3 10.4 0.00 0.02 0.02 29 1012.6
20260506014539 66 183 3.5 12.2 0.00 0.02 0.02 28 1012.2
20260506013042 68 212 5.2 13.0 0.00 0.02 0.02 29 1012.0
20260506011539 69 217 6.1 14.8 0.00 0.02 0.02 27 1011.9
20260506010037 69 236 7.8 15.6 0.00 0.02 0.02 28 1011.7
20260506004537 69 237 7.0 12.2 0.00 0.02 0.02 29 1011.6
20260506003036 69 212 5.2 13.0 0.00 0.02 0.02 27 1011.6
20260506001539 69 246 6.1 14.8 0.00 0.02 0.02 26 1011.6
20260506000039 69 255 7.8 13.9 0.00 0.02 0.02 25 1011.7
20260505234534 71 219 6.1 15.6 0.00 0.02 0.02 26 1011.5
20260505233036 72 246 5.2 20.9 0.00 0.02 0.02 23 1011.6
20260505231535 73 209 5.2 13.9 0.00 0.02 0.02 25 1011.6
20260505230036 72 200 6.1 15.6 0.00 0.02 0.02 27 1011.4
20260505224529 74 243 8.7 17.4 0.00 0.02 0.02 22 1011.7
20260505223033 74 195 7.8 16.5 0.00 0.02 0.02 24 1011.8
20260505221526 73 242 9.6 18.2 0.00 0.02 0.02 24 1012.1
20260505220022 73 273 10.4 18.2 0.00 0.02 0.02 21 1012.3
20260505214529 74 250 7.8 17.4 0.00 0.02 0.02 24 1012.4
20260505213019 73 212 7.8 19.1 0.00 0.02 0.02 25 1012.6
20260505211516 73 235 11.3 16.5 0.00 0.02 0.02 26 1012.9
20260505210012 73 239 8.7 16.5 0.00 0.02 0.02 29 1013.0
20260505204611 73 195 7.0 15.6 0.00 0.02 0.02 29 1013.2
20260505203008 72 191 8.7 13.9 0.00 0.02 0.02 32 1013.1
20260505201511 72 222 7.8 13.9 0.00 0.02 0.02 35 1013.3
20260505200002 70 233 5.2 15.6 0.00 0.02 0.02 39 1013.8
20260505194502 71 224 7.0 14.8 0.00 0.02 0.02 38 1013.9
20260505193101 71 194 6.1 14.8 0.00 0.02 0.02 39 1014.0
20260505191558 70 183 6.1 15.6 0.00 0.02 0.02 40 1014.1
20260505190057 69 200 5.2 11.3 0.00 0.02 0.02 50 1014.5
20260505184553 66 160 2.6 14.8 0.00 0.02 0.02 52 1014.6
20260505183102 66 160 5.2 11.3 0.00 0.02 0.02 54 1014.8
20260505181551 66 205 1.7 9.6 0.00 0.02 0.02 56 1015.0
20260505180051 65 180 1.7 7.8 0.00 0.02 0.02 57 1015.2
20260505174555 63 195 2.6 6.1 0.00 0.02 0.02 59 1015.2
20260505173041 62 164 0.9 3.5 0.00 0.02 0.02 60 1015.3
20260505171545 62 152 2.6 13.0 0.00 0.02 0.02 60 1015.4
20260505170037 61 156 2.6 7.8 0.00 0.02 0.02 61 1015.2
20260505164537 61 175 2.6 7.0 0.00 0.02 0.02 63 1015.0
20260505163036 62 186 2.6 7.0 0.00 0.02 0.02 62 1015.3
20260505161533 61 162 2.6 7.0 0.00 0.02 0.02 65 1015.1
20260505153027 57 181 1.7 4.3 0.00 0.02 0.02 68 1015.0
20260505151528 57 193 2.6 4.3 0.00 0.02 0.02 70 1014.8
20260505124523 53 145 0.0 2.6 0.00 0.00 0.00 83 1013.6
20260505123027 53 133 0.9 2.6 0.00 0.00 0.00 83 1013.5
20260505121521 53 141 0.0 0.9 0.00 0.00 0.00 83 1013.8
20260505120029 53 126 0.0 0.0 0.00 0.00 0.00 82 1014.1
20260505114514 53 111 0.0 0.9 0.00 0.00 0.00 81 1014.1
20260505113011 54 63 0.0 2.6 0.00 0.00 0.00 81 1014.4
20260505111514 54 122 0.0 2.6 0.00 0.00 0.00 79 1014.6
20260505101556 56 301 3.5 5.2 0.00 0.00 0.00 72 1015.5
20260505100054 57 313 4.3 7.8 0.00 0.00 0.00 71 1015.5
20260505094551 57 323 1.7 5.2 0.00 0.00 0.00 70 1015.9
20260505093058 57 297 1.7 4.3 0.00 0.00 0.00 70 1015.8
20260505091600 57 319 0.0 2.6 0.00 0.00 0.00 69 1016.2
20260505090045 58 267 0.0 2.6 0.00 0.00 0.00 67 1016.3
20260505084543 58 337 0.0 2.6 0.00 0.00 0.00 63 1016.6
20260505083041 59 285 0.0 2.6 0.00 0.00 0.00 60 1016.4
20260505081539 59 303 1.7 2.6 0.00 0.00 0.00 58 1016.4
20260505080044 58 298 0.0 0.0 0.00 0.00 0.00 57 1016.8
20260505074536 59 292 0.9 3.5 0.00 0.00 0.00 57 1016.7
20260505073039 59 319 0.9 3.5 0.00 0.00 0.00 57 1016.6
20260505071536 59 345 0.9 2.6 0.00 0.00 0.00 54 1016.8
20260505070029 58 120 0.0 1.7 0.00 0.00 0.00 55 1016.7
20260505064527 57 129 0.0 1.7 0.00 0.00 0.00 58 1016.9
20260505063027 57 128 0.0 0.0 0.00 0.00 0.00 57 1016.9
20260505061526 57 128 0.0 0.9 0.00 0.00 0.00 58 1016.7
20260505060040 57 128 0.0 1.7 0.00 0.00 0.00 58 1017.0
20260505054527 57 125 0.0 0.9 0.00 0.00 0.00 59 1017.1
20260505053026 57 55 0.0 0.0 0.00 0.00 0.00 56 1017.3
20260505051527 57 55 0.0 0.0 0.00 0.00 0.00 57 1017.1